Theta_e
306 306 306 306 306 306 305 305 305 305 305 304 304 303 304 305 305 305 305 305 306 307 314 314 314 315 316 319 324 329 332 336 336 337 336 336 337 338 336 331 329 328 329
307 306 306 306 306 306 305 305 305 305 304 304 303 303 303 303 303 303 304 305 306 306 307 312 313 313 314 316 319 323 327 331 334 336 335 332 334 336 338 337 332 329 327
307 306 306 306 306 306 305 305 304 304 304 303 303 302 302 302 303 303 303 304 305 305 305 306 310 311 312 315 318 318 319 324 331 333 336 333 331 334 335 337 336 332 329
307 307 306 306 305 305 305 304 304 304 304 303 302 302 301 301 301 301 303 304 304 304 305 306 308 309 311 314 316 317 319 321 326 331 332 335 335 331 332 335 337 336 333
307 307 306 306 306 305 304 304 304 303 303 303 302 302 301 301 302 303 303 303 302 303 304 306 309 310 311 313 313 314 317 316 316 321 329 332 333 334 331 331 335 337 336
306 306 306 306 305 305 304 304 303 303 303 302 302 302 301 302 301 301 302 302 301 301 301 302 303 304 306 311 316 313 314 316 316 319 322 326 331 333 332 334 332 334 337
306 306 305 305 305 305 304 303 303 302 302 302 302 301 301 301 300 301 300 300 301 300 301 300 300 302 302 303 304 306 310 314 313 312 313 315 317 323 330 333 334 329 332
306 306 306 305 304 304 304 303 302 302 302 302 301 299 296 299 301 301 300 300 299 300 299 298 299 300 301 301 302 302 303 304 308 310 310 312 313 316 323 329 331 332 330
306 306 306 305 305 304 304 303 302 302 302 301 300 300 296 296 297 299 299 299 299 299 298 299 300 300 300 300 301 301 302 303 308 308 309 311 314 315 317 322 326 330 333
307 307 307 306 304 304 304 303 302 302 301 300 300 299 300 299 296 296 298 298 298 298 298 298 298 298 298 299 300 300 301 302 305 306 308 309 311 313 314 315 317 323 329
308 307 306 305 303 303 303 302 301 301 300 299 299 298 298 298 298 295 297 296 297 297 297 297 297 298 298 298 298 299 300 303 305 306 306 307 308 310 312 314 315 316 320
307 306 304 303 303 302 302 301 300 299 299 298 298 298 297 297 296 295 292 295 296 296 297 297 297 298 298 298 298 298 299 301 303 304 305 305 305 307 308 310 312 314 316
304 303 303 302 302 301 300 300 299 298 297 297 297 297 296 296 296 296 296 295 295 296 297 297 297 298 298 298 299 299 299 301 301 304 305 304 304 305 306 307 309 311 313
303 302 302 301 300 300 299 298 297 297 297 296 296 296 296 296 296 296 295 296 296 296 297 297 298 298 298 298 299 299 299 298 299 301 303 305 306 304 304 306 308 309 310
301 301 300 299 298 297 296 296 295 295 295 295 295 295 295 295 295 296 296 296 296 296 297 297 297 297 297 297 297 297 297 297 298 299 300 303 304 306 304 305 306 306 308
300 299 298 297 296 296 295 295 294 294 294 294 294 295 295 295 296 296 296 297 297 297 297 297 296 296 296 296 296 296 296 296 297 298 299 301 302 304 304 305 305 305 307
299 298 296 295 295 294 294 294 294 294 294 294 295 295 296 296 296 296 296 297 297 297 297 296 296 296 296 296 296 296 296 296 296 297 298 299 300 302 304 303 303 303 305
296 295 295 294 294 294 294 294 294 294 294 295 295 294 294 295 295 295 296 296 296 296 296 296 296 296 296 296 296 296 296 296 296 296 298 299 299 300 302 304 303 303 304
295 294 294 293 293 293 293 293 294 294 294 294 295 295 295 295 295 295 296 296 296 296 296 296 296 296 295 295 295 295 296 296 296 297 297 299 299 300 300 302 303 302 304
294 294 293 293 293 293 293 293 293 294 294 295 295 295 295 296 296 296 296 296 296 296 296 296 296 296 296 296 296 296 295 296 296 297 297 297 298 298 298 300 302 302 301
293 293 293 292 292 293 293 293 294 294 295 295 296 297 297 297 298 298 298 297 297 297 297 297 297 297 297 297 297 297 296 296 296 296 296 297 297 297 297 299 301 302 301
293 293 292 292 292 293 293 293 294 295 296 296 296 296 297 298 297 298 299 299 300 300 300 299 299 297 298 298 298 298 297 297 297 296 296 296 296 296 297 296 298 300 298
293 292 292 292 293 292 292 294 295 296 296 297 296 296 296 296 296 296 296 297 297 297 298 299 299 299 299 299 298 298 298 298 297 297 297 295 297 296 297 297 299 298 300
292 292 292 292 292 292 293 294 295 296 296 296 296 295 295 295 294 295 296 296 297 297 297 297 297 297 297 298 299 299 298 298 298 298 297 297 297 298 298 299 299 300 301
292 292 291 291 292 292 293 294 295 295 296 295 296 295 296 295 295 296 296 296 296 296 296 297 297 299 300 301 302 301 299 299 299 299 298 297 297 297 297 297 298 299 299
291 290 291 291 292 292 292 294 295 296 296 296 295 295 295 295 295 295 295 295 295 295 296 296 297 297 299 300 300 298 300 300 299 299 298 296 297 297 297 298 298 298 298
Wind_Speed
12 11 13 13 14 14 15 16 17 17 18 18 18 17 13 12 11 12 12 11 10 9 8 8 8 7 7 8 7 5 6 7 11 10 12 13 13 12 11 10 10 11 12
11 10 11 11 11 11 12 13 14 16 17 19 20 19 16 14 14 15 13 11 9 9 9 8 8 7 8 9 8 7 7 7 8 10 12 12 12 14 15 14 13 13 13
9 8 8 8 8 8 9 10 12 14 16 19 21 21 20 18 16 15 14 14 11 9 9 10 8 8 8 9 9 9 10 9 8 10 10 14 13 14 17 17 16 15 15
7 6 5 5 5 5 6 9 12 14 16 19 22 23 21 21 21 16 13 11 9 9 9 8 6 6 8 8 7 9 9 6 8 9 9 10 15 15 16 18 20 18 17
6 4 3 1 1 3 5 9 11 15 17 21 23 24 24 23 14 10 8 12 13 13 11 8 4 6 8 8 9 9 8 7 7 8 8 9 10 17 18 17 19 21 20
7 6 5 4 3 5 6 9 12 14 16 18 21 21 25 11 14 12 6 10 12 15 13 12 9 8 8 9 10 10 9 8 7 6 6 7 8 9 17 19 19 21 23
10 9 8 7 7 7 7 9 10 13 17 16 15 23 17 11 14 3 18 18 12 19 12 14 14 13 11 10 8 7 9 9 11 11 11 10 11 12 11 16 21 22 23
13 12 11 10 10 10 9 9 10 11 12 11 8 8 4 9 1 15 22 10 24 15 20 21 15 13 15 13 13 13 13 12 11 12 13 13 13 12 13 11 18 22 22
16 15 15 13 13 13 12 12 11 11 10 11 12 4 3 3 8 8 15 15 14 22 21 17 16 15 16 15 12 12 12 12 11 13 13 13 12 12 12 13 13 14 23
19 17 16 16 15 13 13 13 12 10 11 14 13 10 12 13 3 5 6 15 25 14 24 22 19 20 21 19 19 18 13 10 12 12 12 14 15 15 15 14 14 14 14
18 17 17 16 14 12 12 11 11 13 15 16 16 17 14 16 17 10 10 11 23 22 20 22 23 24 23 23 25 23 18 16 13 13 15 15 16 16 16 16 16 16 17
12 11 7 6 7 10 12 14 15 16 18 19 19 19 21 15 10 13 5 10 19 22 22 24 22 22 25 24 24 24 22 19 17 18 17 18 22 21 20 21 20 19 18
6 6 8 10 12 14 16 17 20 23 23 23 23 24 24 25 25 25 20 16 9 21 19 22 21 21 22 20 20 18 15 13 13 14 16 22 22 22 24 24 23 23 22
7 8 10 13 16 18 19 20 22 23 24 25 26 26 28 28 27 28 22 16 12 14 19 24 24 19 16 16 19 22 24 26 21 19 16 16 21 26 27 25 23 23 23
6 10 13 14 16 18 19 20 22 24 24 25 27 28 28 29 28 29 29 28 17 11 12 17 18 21 23 25 27 28 30 29 26 25 24 19 16 22 24 24 25 27 26
8 11 15 18 19 20 21 22 24 25 25 26 26 26 27 27 27 27 27 30 26 20 13 21 21 25 29 30 30 27 27 24 21 21 21 25 21 16 23 22 22 23 24
14 17 18 19 21 23 22 23 25 27 27 26 25 24 26 26 27 24 23 23 24 22 15 32 27 27 28 34 36 33 31 29 28 25 23 23 26 22 19 25 25 27 28
17 17 20 21 22 22 23 24 27 27 28 22 20 24 27 25 26 27 27 26 26 25 25 27 25 25 27 32 36 36 34 30 28 27 23 23 23 26 25 21 25 27 29
17 17 19 20 21 24 24 22 22 21 19 25 29 31 30 26 26 26 27 26 26 27 28 30 30 27 29 29 28 32 34 34 33 29 25 26 26 26 28 28 25 25 24
18 19 19 22 23 22 22 22 23 26 30 33 32 28 25 25 27 28 29 30 30 30 28 28 25 28 27 26 26 24 23 26 31 30 25 24 24 24 25 32 31 25 24
19 21 22 23 23 21 22 24 29 28 26 26 26 27 26 28 31 33 33 30 30 30 29 27 25 24 24 23 23 24 24 23 26 30 29 31 29 28 29 26 32 28 25
21 22 23 23 24 20 25 28 26 25 27 25 24 27 30 25 29 29 28 28 29 24 19 22 17 16 23 23 24 25 21 18 9 23 25 30 25 29 28 28 33 29 29
23 23 24 23 21 28 27 26 26 27 23 22 23 22 24 21 23 25 27 27 29 29 27 27 23 22 22 27 28 26 27 26 25 21 14 19 19 22 22 23 24 29 22
23 21 19 26 30 27 24 26 26 25 24 25 22 25 22 20 25 22 25 29 31 32 31 28 27 34 33 32 30 34 32 33 30 26 23 15 18 21 18 15 17 18 18
16 23 29 28 25 27 24 25 25 24 25 23 24 21 20 25 25 26 29 28 28 29 28 28 31 33 32 35 35 30 30 25 14 19 23 21 17 21 23 23 22 21 21
24 26 26 25 24 25 26 23 24 24 20 22 21 20 19 21 24 27 30 26 25 28 25 27 28 30 26 26 25 34 33 24 20 10 20 21 19 15 5 20 26 26 26
Wind_Direction
118 107 96 88 84 73 63 56 49 41 32 25 20 12 8 2 352 343 337 332 339 342 329 321 326 328 335 329 317 298 284 273 241 236 230 230 221 218 216 209 201 195 190
123 113 103 91 82 68 58 46 38 30 23 14 9 5 358 346 337 333 331 331 334 341 337 316 311 313 324 325 324 323 296 281 266 249 241 241 235 227 220 218 212 203 195
134 123 109 95 79 64 50 35 28 19 13 7 2 358 352 346 346 339 329 319 310 310 312 314 296 298 314 324 310 318 309 278 277 267 262 244 244 234 230 222 217 212 205
151 142 125 100 72 43 29 18 11 8 4 358 353 352 348 340 333 332 347 2 342 319 314 313 313 298 316 320 315 319 323 303 285 279 273 275 246 240 235 233 223 217 212
175 179 172 150 25 356 359 359 0 356 352 349 346 343 342 340 353 3 27 26 31 38 31 12 330 294 316 328 325 320 305 311 308 288 282 280 283 247 238 237 234 226 218
209 220 223 235 273 310 333 343 346 344 342 341 335 333 335 339 332 325 331 343 354 358 5 13 11 5 336 297 301 307 305 288 305 320 297 293 281 280 252 238 238 236 228
226 231 243 253 272 295 312 326 329 331 332 337 331 333 334 334 313 38 346 329 331 336 334 338 332 332 335 334 331 326 322 298 283 289 290 297 295 284 285 255 241 236 236
243 253 263 262 265 281 287 306 316 318 319 332 338 330 340 331 195 315 319 331 320 323 322 329 329 329 331 322 323 317 303 293 291 285 285 285 285 287 277 280 257 246 238
244 253 257 258 266 267 278 292 297 295 297 308 319 295 333 276 322 298 302 305 310 313 318 323 321 318 320 328 334 311 301 313 295 281 275 276 280 275 284 265 276 277 246
249 255 257 262 263 261 273 283 287 289 295 298 304 290 261 268 262 314 312 296 302 304 305 310 310 309 306 308 309 306 308 298 294 290 277 270 268 269 274 276 278 280 268
247 250 248 256 253 256 269 276 286 295 297 293 290 296 285 275 265 242 287 297 299 299 297 295 299 301 300 298 296 299 300 293 292 283 271 272 268 266 267 270 273 274 274
249 252 247 245 260 277 285 293 298 299 298 291 288 284 278 266 260 251 256 272 284 296 294 293 292 290 296 294 289 285 289 291 283 276 272 266 264 263 262 263 266 269 272
223 252 274 285 292 298 302 302 301 299 298 293 292 288 285 279 280 276 269 279 264 288 289 289 287 288 290 288 285 283 278 284 288 288 277 264 259 259 261 260 261 263 267
282 297 302 303 304 301 299 299 297 296 293 289 288 285 285 283 283 278 267 272 285 282 278 283 288 284 278 272 276 281 284 287 286 287 292 283 265 254 253 257 258 259 261
314 304 304 305 305 304 303 302 299 297 295 292 290 288 284 284 284 281 277 273 255 283 281 278 278 284 280 276 276 276 280 282 280 277 274 279 275 254 248 252 256 256 258
313 310 309 308 308 307 307 305 301 299 295 291 292 292 289 286 284 281 278 278 259 258 280 275 275 280 283 279 275 274 276 281 276 274 274 266 273 267 246 246 253 260 259
314 316 316 313 312 310 308 306 303 300 295 293 289 287 289 290 285 279 281 266 261 260 265 277 274 273 271 277 282 281 280 282 279 273 272 268 258 262 257 249 251 258 257
317 317 316 315 313 310 309 307 304 299 292 283 286 295 293 285 274 273 271 267 263 259 255 270 272 271 268 270 281 284 283 279 276 274 267 264 261 253 256 257 254 254 258
318 317 315 312 311 311 307 305 301 295 284 290 295 295 288 284 279 270 264 263 260 259 256 257 268 270 265 264 264 270 277 279 277 275 263 261 258 258 254 252 253 254 258
316 316 315 312 311 307 303 303 302 296 293 290 288 281 275 275 272 270 267 263 261 259 258 257 262 263 261 266 262 259 259 263 265 270 264 259 260 259 260 247 245 245 252
317 315 313 312 307 301 306 306 300 292 288 285 284 280 276 280 271 269 262 255 255 253 251 246 250 253 255 257 252 258 252 260 261 264 264 270 271 260 254 247 241 244 245
317 314 310 307 304 294 304 306 300 297 293 288 289 287 283 283 284 285 281 283 282 274 272 260 240 250 251 252 252 251 248 248 259 262 255 263 259 258 257 249 239 239 249
316 314 312 307 301 304 304 303 303 300 300 296 297 287 285 286 291 285 290 285 284 283 280 276 272 266 263 256 245 244 240 241 242 244 249 251 263 258 254 250 240 233 243
319 315 315 312 308 305 302 304 302 304 304 297 292 298 289 284 290 285 282 282 280 279 277 274 266 270 269 265 248 241 239 241 247 245 234 252 247 250 252 256 235 235 240
319 319 317 315 311 307 306 305 304 304 302 302 291 298 286 291 292 292 287 284 280 275 276 274 271 278 271 266 255 249 226 224 229 226 219 228 244 252 257 258 252 247 248
321 321 320 318 313 304 312 308 305 304 299 297 296 290 283 287 290 294 290 292 284 281 280 278 271 279 276 274 274 283 243 211 219 221 217 211 226 226 252 256 259 249 247